GW0245 Weather Reports


Display with metric or nautical units.
time (UTC)temp
F
wind
direction
speed
MPH
gust
MPH
rain 1hr
in
rain 24hr
in
rain mn
in
humidity
%
barometer
mb
20260504213110 72 137 9.0 19.0 0.00 0.00 0.00 32 1012.8
20260504211555 71 92 8.0 16.0 0.00 0.00 0.00 32 1012.9
20260504210105 71 140 8.0 20.0 0.00 0.00 0.00 31 1013.1
20260504204605 72 86 6.0 15.0 0.00 0.00 0.00 32 1012.7
20260504203059 73 154 6.0 14.0 0.00 0.00 0.00 31 1013.1
20260504201558 71 145 7.0 17.0 0.00 0.00 0.00 32 1013.1
20260504200057 71 136 9.0 17.0 0.00 0.00 0.00 33 1013.2
20260504194559 70 94 6.0 14.0 0.00 0.00 0.00 34 1013.2
20260504193113 71 81 6.0 16.0 0.00 0.00 0.00 32 1013.2
20260504191559 71 97 7.0 17.0 0.00 0.00 0.00 34 1013.3
20260504190107 71 93 7.0 17.0 0.00 0.00 0.00 35 1013.4
20260504184559 71 142 5.0 15.0 0.00 0.00 0.00 36 1013.4
20260504183102 69 88 5.0 17.0 0.00 0.00 0.00 38 1013.5
20260504181558 68 132 6.0 17.0 0.00 0.00 0.00 37 1013.6
20260504180140 69 119 5.0 14.0 0.00 0.00 0.00 37 1013.8
20260504174555 69 0 8.0 17.0 0.00 0.00 0.00 36 1014.1
20260504173102 69 121 7.0 16.0 0.00 0.00 0.00 36 1014.0
20260504171556 68 154 8.0 17.0 0.00 0.00 0.00 37 1013.8
20260504120108 61 153 1.0 5.0 0.00 0.00 0.00 44 1012.9
20260504100116 63 0 1.0 5.0 0.00 0.00 0.00 41 1013.7
20260504081608 65 0 0.0 11.0 0.00 0.00 0.00 35 1012.9
20260504060107 65 0 0.0 2.0 0.00 0.00 0.00 29 1012.3
20260504050110 69 0 0.0 6.0 0.00 0.00 0.00 27 1012.5
20260504044554 69 0 0.0 5.0 0.00 0.00 0.00 25 1012.3
20260504043102 70 158 1.0 4.0 0.00 0.00 0.00 24 1012.2
20260504041557 71 209 1.0 5.0 0.00 0.00 0.00 22 1012.0
20260504040104 72 226 4.0 10.0 0.00 0.00 0.00 21 1011.7
20260504034610 73 255 5.0 13.0 0.00 0.00 0.00 21 1011.5
20260504033100 72 253 4.0 11.0 0.00 0.00 0.00 21 1011.3
20260504031602 73 237 3.0 10.0 0.00 0.00 0.00 20 1011.1
20260504030055 73 242 5.0 11.0 0.00 0.00 0.00 20 1011.1
20260504024558 73 263 4.0 9.0 0.00 0.00 0.00 20 1010.9
20260504023055 74 175 3.0 5.0 0.00 0.00 0.00 20 1010.7
20260504021557 75 170 2.0 10.0 0.00 0.00 0.00 19 1010.4
20260504020104 76 213 3.0 15.0 0.00 0.00 0.00 19 1010.3
20260504014557 77 234 6.0 15.0 0.00 0.00 0.00 18 1010.5
20260504013053 78 236 5.0 11.0 0.00 0.00 0.00 19 1010.4
20260504011554 79 159 3.0 15.0 0.00 0.00 0.00 19 1010.3
20260504010054 79 166 3.0 10.0 0.00 0.00 0.00 21 1010.4
20260504004554 80 194 5.0 18.0 0.00 0.00 0.00 20 1010.6
20260504003057 81 198 3.0 9.0 0.00 0.00 0.00 20 1010.5
20260504001559 81 163 5.0 14.0 0.00 0.00 0.00 20 1010.6
20260504000058 82 211 8.0 21.0 0.00 0.00 0.00 19 1010.5
20260503234555 82 163 7.0 15.0 0.00 0.00 0.00 19 1010.6
20260503233058 82 161 8.0 16.0 0.00 0.00 0.00 19 1010.6
20260503231552 83 225 6.0 19.0 0.00 0.00 0.00 18 1010.9
20260503230105 83 171 6.0 16.0 0.00 0.00 0.00 17 1010.9
20260503224559 83 217 6.0 15.0 0.00 0.00 0.00 17 1011.2
20260503223054 83 128 7.0 19.0 0.00 0.00 0.00 16 1011.3
20260503221556 83 101 7.0 20.0 0.00 0.00 0.00 17 1011.6
20260503220055 84 186 8.0 17.0 0.00 0.00 0.00 17 1011.8
20260503214554 84 105 6.0 21.0 0.00 0.00 0.00 16 1011.9